Location: Cartignies
(50.0929°N, 3.8447°E)
Time: 14:43:14
(UTC+00:00)

Cosmos 1697 Rocket - Pass Details

Date: 12 January 2026
Orbit: 830 x 844 km, 71.0° (Epoch: 15 February)

Event Time Altitude Azimuth Distance (km) Brightness Sun altitude
Rises 17:06:18 0° 331° (NNW) 3,404 5.9 -9.3°
Reaches altitude 10° 17:10:09 10° 357° (N) 2,469 4.9 -9.8°
Maximum altitude 17:12:56 14° 27° (NNE) 2,215 4.5 -10.3°
Enters shadow 17:14:56 12° 49° (NE) 2,348 4.4 -10.6°
